Meteo pe oră la Bolshie Verhi

Astăzi, 6 Mai, Joi

Timp Temperatura Precipitaţii Vânt Presiune Umiditate
00:00 +6°C° 0 mm 4 m/s 740 mmHg 81%
01:00 +6°C° 0 mm 4 m/s 741 mmHg 82%
02:00 +5°C° 0 mm 4 m/s 741 mmHg 82%
03:00 +5°C° 0 mm 4 m/s 741 mmHg 84%
04:00 +6°C° 0 mm 4 m/s 741 mmHg 83%
05:00 +7°C° 0 mm 3 m/s 741 mmHg 83%
06:00 +8°C° 0 mm 3 m/s 741 mmHg 82%
07:00 +8°C° 0 mm 4 m/s 741 mmHg 76%
08:00 +10°C° 0 mm 5 m/s 742 mmHg 69%
09:00 +13°C° 0 mm 5 m/s 742 mmHg 63%
10:00 +14°C° 0 mm 6 m/s 742 mmHg 59%
11:00 +15°C° 0 mm 6 m/s 742 mmHg 56%
12:00 +15°C° 0 mm 7 m/s 741 mmHg 52%
13:00 +16°C° 0 mm 7 m/s 741 mmHg 52%
14:00 +16°C° 0 mm 6 m/s 741 mmHg 51%
15:00 +16°C° 0 mm 6 m/s 741 mmHg 51%
16:00 +16°C° 0 mm 6 m/s 741 mmHg 55%
17:00 +15°C° 0 mm 5 m/s 741 mmHg 59%
18:00 +14°C° 0 mm 4 m/s 740 mmHg 63%
19:00 +13°C° 0 mm 4 m/s 740 mmHg 67%
20:00 +12°C° 0 mm 4 m/s 741 mmHg 71%
21:00 +11°C° 0 mm 3 m/s 741 mmHg 75%
22:00 +11°C° 0 mm 4 m/s 740 mmHg 75%
23:00 +10°C° 0 mm 4 m/s 740 mmHg 75%

Mâine, 7 Mai, Vineri

Timp Temperatura Precipitaţii Vânt Presiune Umiditate
00:00 +10°C° 0 mm 4 m/s 740 mmHg 75%
01:00 +10°C° 0 mm 4 m/s 740 mmHg 72%
02:00 +9°C° 0 mm 5 m/s 740 mmHg 69%
03:00 +10°C° 0 mm 5 m/s 740 mmHg 67%
04:00 +9°C° 0 mm 5 m/s 740 mmHg 67%
05:00 +9°C° 0 mm 5 m/s 740 mmHg 68%
06:00 +9°C° 0 mm 5 m/s 740 mmHg 68%
07:00 +10°C° 0 mm 5 m/s 740 mmHg 68%
08:00 +12°C° 0 mm 5 m/s 740 mmHg 67%
09:00 +13°C° 0 mm 5 m/s 740 mmHg 66%
10:00 +13°C° 0.1 mm 5 m/s 740 mmHg 65%
11:00 +14°C° 0.1 mm 5 m/s 740 mmHg 64%
12:00 +15°C° 0.1 mm 5 m/s 740 mmHg 62%
13:00 +13°C° 0.6 mm 5 m/s 740 mmHg 70%
14:00 +10°C° 0.6 mm 5 m/s 741 mmHg 78%
15:00 +8°C° 0.6 mm 5 m/s 741 mmHg 86%
16:00 +8°C° 0 mm 4 m/s 742 mmHg 84%
17:00 +9°C° 0 mm 3 m/s 742 mmHg 82%
18:00 +10°C° 0 mm 3 m/s 742 mmHg 79%
19:00 +9°C° 0 mm 2 m/s 742 mmHg 83%
20:00 +8°C° 0 mm 2 m/s 742 mmHg 87%
21:00 +8°C° 0 mm 1 m/s 743 mmHg 90%
22:00 +8°C° 0 mm 1 m/s 743 mmHg 90%
23:00 +7°C° 0 mm 1 m/s 743 mmHg 90%

Poimâine, 8 Mai, Sâmbătă

Timp Temperatura Precipitaţii Vânt Presiune Umiditate
00:00 +7°C° 0 mm 1 m/s 743 mmHg 89%
01:00 +7°C° 0 mm 1 m/s 743 mmHg 89%
02:00 +6°C° 0 mm 1 m/s 743 mmHg 90%
03:00 +6°C° 0 mm 1 m/s 743 mmHg 90%
04:00 +6°C° 0 mm 1 m/s 742 mmHg 89%
05:00 +7°C° 0 mm 1 m/s 742 mmHg 89%
06:00 +8°C° 0 mm 1 m/s 742 mmHg 88%
07:00 +8°C° 0 mm 2 m/s 742 mmHg 84%
08:00 +10°C° 0 mm 2 m/s 742 mmHg 80%
09:00 +12°C° 0 mm 3 m/s 741 mmHg 75%
10:00 +13°C° 0 mm 4 m/s 741 mmHg 69%
11:00 +14°C° 0 mm 5 m/s 741 mmHg 63%
12:00 +15°C° 0 mm 6 m/s 740 mmHg 57%
13:00 +16°C° 0 mm 6 m/s 740 mmHg 54%
14:00 +16°C° 0 mm 6 m/s 740 mmHg 51%
15:00 +17°C° 0 mm 6 m/s 739 mmHg 48%
16:00 +16°C° 0 mm 5 m/s 739 mmHg 53%
17:00 +16°C° 0 mm 5 m/s 739 mmHg 57%
18:00 +16°C° 0 mm 5 m/s 738 mmHg 62%
19:00 +15°C° 0 mm 6 m/s 738 mmHg 64%
20:00 +15°C° 0 mm 6 m/s 738 mmHg 66%
21:00 +14°C° 0 mm 7 m/s 737 mmHg 68%
22:00 +14°C° 0.3 mm 6 m/s 737 mmHg 75%
23:00 +13°C° 0.3 mm 5 m/s 737 mmHg 82%

9 Mai, Duminică

Timp Temperatura Precipitaţii Vânt Presiune Umiditate
00:00 +13°C° 0.3 mm 4 m/s 737 mmHg 89%
01:00 +12°C° 0.3 mm 4 m/s 737 mmHg 90%
02:00 +12°C° 0.3 mm 5 m/s 737 mmHg 91%
03:00 +12°C° 0.3 mm 5 m/s 737 mmHg 91%
04:00 +9°C° 0 mm 5 m/s 738 mmHg 90%
05:00 +8°C° 0 mm 4 m/s 738 mmHg 89%
06:00 +7°C° 0 mm 4 m/s 739 mmHg 87%
07:00 +7°C° 0 mm 4 m/s 739 mmHg 85%
08:00 +6°C° 0 mm 4 m/s 739 mmHg 83%
09:00 +6°C° 0 mm 4 m/s 739 mmHg 81%
10:00 +6°C° 0.4 mm 4 m/s 740 mmHg 82%
11:00 +6°C° 0.4 mm 4 m/s 740 mmHg 83%
12:00 +6°C° 0.4 mm 4 m/s 740 mmHg 84%
13:00 +6°C° 1.4 mm 4 m/s 740 mmHg 86%
14:00 +6°C° 1.4 mm 4 m/s 741 mmHg 89%
15:00 +5°C° 1.4 mm 4 m/s 741 mmHg 91%
16:00 +5°C° 1.5 mm 5 m/s 742 mmHg 92%
17:00 +5°C° 1.5 mm 5 m/s 742 mmHg 92%
18:00 +4°C° 1.5 mm 6 m/s 742 mmHg 93%
19:00 +4°C° 1 mm 6 m/s 742 mmHg 93%
20:00 +4°C° 1 mm 7 m/s 743 mmHg 93%
21:00 +4°C° 1 mm 7 m/s 743 mmHg 93%
22:00 +4°C° 0.9 mm 7 m/s 743 mmHg 93%
23:00 +4°C° 0.9 mm 7 m/s 743 mmHg 93%

10 Mai, Luni

Timp Temperatura Precipitaţii Vânt Presiune Umiditate
00:00 +4°C° 0.9 mm 7 m/s 743 mmHg 94%
01:00 +4°C° 1.5 mm 7 m/s 743 mmHg 94%
02:00 +4°C° 1.5 mm 7 m/s 744 mmHg 94%
03:00 +4°C° 1.5 mm 7 m/s 744 mmHg 95%
04:00 +4°C° 1.4 mm 8 m/s 744 mmHg 94%
05:00 +4°C° 1.4 mm 8 m/s 744 mmHg 94%
06:00 +3°C° 1.4 mm 9 m/s 745 mmHg 93%
07:00 +3°C° 0.2 mm 9 m/s 745 mmHg 93%
08:00 +3°C° 0.2 mm 9 m/s 746 mmHg 92%
09:00 +4°C° 0.2 mm 8 m/s 746 mmHg 91%
10:00 +4°C° 0.2 mm 8 m/s 746 mmHg 92%
11:00 +4°C° 0.2 mm 8 m/s 746 mmHg 92%
12:00 +5°C° 0.2 mm 8 m/s 746 mmHg 92%
13:00 +6°C° 0 mm 8 m/s 747 mmHg 91%
14:00 +6°C° 0 mm 8 m/s 747 mmHg 90%
15:00 +7°C° 0 mm 8 m/s 747 mmHg 89%
16:00 +9°C° 0 mm 8 m/s 747 mmHg 89%
17:00 +10°C° 0 mm 7 m/s 747 mmHg 89%
18:00 +10°C° 0 mm 7 m/s 747 mmHg 88%
19:00 +10°C° 0 mm 7 m/s 747 mmHg 90%
20:00 +9°C° 0 mm 7 m/s 747 mmHg 91%
21:00 +8°C° 0 mm 7 m/s 747 mmHg 93%
22:00 +8°C° 0 mm 7 m/s 747 mmHg 93%
23:00 +8°C° 0 mm 6 m/s 747 mmHg 94%

11 Mai, Marţi

Timp Temperatura Precipitaţii Vânt Presiune Umiditate
00:00 +8°C° 0 mm 6 m/s 747 mmHg 94%
01:00 +8°C° 0 mm 6 m/s 747 mmHg 94%
02:00 +8°C° 0 mm 6 m/s 748 mmHg 94%
03:00 +8°C° 0 mm 5 m/s 748 mmHg 95%
04:00 +8°C° 0 mm 5 m/s 748 mmHg 94%
05:00 +8°C° 0 mm 5 m/s 748 mmHg 93%
06:00 +9°C° 0 mm 5 m/s 749 mmHg 93%
07:00 +10°C° 0 mm 5 m/s 749 mmHg 88%
08:00 +13°C° 0 mm 4 m/s 749 mmHg 84%
09:00 +15°C° 0 mm 4 m/s 749 mmHg 79%
10:00 +17°C° 0 mm 4 m/s 749 mmHg 74%
11:00 +19°C° 0 mm 4 m/s 749 mmHg 69%
12:00 +20°C° 0 mm 4 m/s 749 mmHg 63%
13:00 +21°C° 0.2 mm 4 m/s 749 mmHg 63%
14:00 +21°C° 0.2 mm 4 m/s 749 mmHg 62%
15:00 +22°C° 0.2 mm 4 m/s 748 mmHg 61%
16:00 +21°C° 0.5 mm 4 m/s 748 mmHg 64%
17:00 +21°C° 0.5 mm 4 m/s 748 mmHg 67%
18:00 +20°C° 0.5 mm 4 m/s 748 mmHg 69%
19:00 +19°C° 0.4 mm 4 m/s 748 mmHg 75%
20:00 +17°C° 0.4 mm 4 m/s 748 mmHg 80%
21:00 +15°C° 0.4 mm 4 m/s 748 mmHg 86%
22:00 +15°C° 0 mm 4 m/s 748 mmHg 86%
23:00 +14°C° 0 mm 4 m/s 748 mmHg 87%
Arată mai mult

Formular de consimțământ

Meteoprog și furnizorii noștri de servicii pot stoca și accesa date personale, precum cookies, identificatori de dispozitiv sau alte tehnologii similare pe dispozitivul dumneavoastră și procesa astfel de date pentru a personaliza conținutul și reclamele, dar și pentru a oferi caracteristici de social media și pentru a analiza traficul.

  • Stocarea și/sau accesarea informațiilor pe dispozitivul dumneavoastră

    Cookies, identificatori de dispozitiv sau alte informații pot fi stocate sau accesate pe dispozitiv în scopurile indicate mai sus.

  • Reclame și conținut personalizat, evaluarea reclamelor și a conținutului, informații despre audiențe și dezvoltarea produselor

    Reclamele și conținutul pot fi personalizate pe baza unui profil. Pot fi adăugate date suplimentare pentru a personaliza mai bine reclamele și conținutul. Performanța reclamelor și conținutului poate fi măsurată. Pot fi obținute informații despre utilizatorii care au văzut reclamele și conținutul. Aceste date pot fi utilizate pentru a dezvolta sau îmbunătăți experiența utilizatorilor, sistemele și software-ul.

Dând clic pe ‘Sunt de acord’, permiteți utilizarea cookie-urilor menționate, a identificatorilor de dispozitiv, balizelor web sau altor tehnologii similare. Setările pot fi modificate din browser-ul dispozitivului dumneavoastră.

În anumite scopuri, interesele legitime pot prima asupra consimțământului. Puteți citi mai multe informații în acest sens în Politica privind Confidențialitatea Datelor și Cookie.